Regional Weather Roundup
Issued by NWS Wakefield, VA

Home | Current Version | Previous Version | Text Only | Print | Product List | Glossary Off
Versions: 1 2 3 4 5 6 7 8 9 10 11 12 13 14 15 16 17 18 19 20 21 22 23 24 25 26 27 28 29 30 31 32 33 34 35 36 37 38 39 40 41 42 43 44 45

000
ASUS41 KAKQ 242310
RWRAKQ

REGIONAL WEATHER ROUNDUP
NATIONAL WEATHER SERVICE WAKEFIELD VA
600 PM EST WED DEC 24 2014

Note: "fair" indicates few or no clouds below 12,000 feet with no
significant weather and/or obstructions to visibility. * = Denotes
station may not report precipitation (e.g., rain,snow,etc.),
thunder or fog.

VAZ042-051-052>054-056-250000-
NORTHERN VIRGINIA

CITY           SKY/WX    TMP DP  RH WIND       PRES   REMARKS
WASH NATIONAL  CLOUDY    52  48  86 S7        29.64R
DULLES         FOG       49  49 100 S5        29.61F VSB 1/4
FORT BELVOIR   CLOUDY    48  48 100 SE5       29.63F FOG
QUANTICO       FOG       48  46  93 CALM      29.65R VSB 3/4
FREDERICKSBRG* CLOUDY    53  53 100 CALM      29.63S
STAFFORD*      CLOUDY    51  32  48 CALM      29.67F
WARRENTON      CLOUDY    52  52 100 S6        29.62R
CULPEPER*      CLOUDY    52  52 100 CALM      29.63R
MANASSAS*      CLOUDY    52  50  93 S5        29.62
LEESBURG*      FOG       48  48 100 CALM      29.62S VSB 1/2
WINCHESTER     FOG       45  41  87 CALM      29.58F VSB 1/4
FRONT ROYAL*   CLOUDY    43  43 100 CALM      29.58S
LURAY*         CLOUDY    48  48 100 CALM      29.59S
$$

VAZ048-049-060>072-079>083-250000-
CENTRAL AND SOUTH CENTRAL VIRGINIA

CITY           SKY/WX    TMP DP  RH WIND       PRES   REMARKS
RICHMOND       LGT RAIN  56  54  93 S5        29.64F VSB 1/4
CHESTERFIELD*  CLOUDY    55  45  67 CALM      29.67S VSB 1/2
PETERSBURG*    CLOUDY    64  63  97 S7        29.67S
HANOVER        FOG       52  52 100 SW6       29.68R VSB 1/2
TAPPAHANNOCK*  RAIN      57  56  95 CALM      29.64F VSB 1/2
QUINTON*       CLOUDY    56  56 100 E8        29.65F VSB 1/4
CHARLOTTSVILLE FOG       50  49  96 S7        29.61F VSB 3/4
GORDONSVILLE*  CLOUDY    49  49  99 S5        29.62S
ORANGE*        CLOUDY    52  50  93 CALM      29.64R
LOUISA*        CLOUDY    52  50  93 S5        29.63R
BUMPASS*       CLOUDY    50  49  98 S3        29.64R
FARMVILLE*     FOG       51  51 100 CALM      29.65S VSB 3/4
CREWE*         CLOUDY    52  51  95 CALM      29.66S VSB 1/4
FORT PICKETT*  CLOUDY    60  59  97 S10G16    29.66R
CHASE CITY*    CLOUDY    54  54 100 CALM      29.66F VSB 1/2
CLARKSVILLE*   CLOUDY    52  52 100 CALM      29.67S
SOUTH HILL*    CLOUDY    64  63  97 S12G17    29.73R
LAWRENCEVILLE* CLOUDY    64  64 100 S7        29.69R
EMPORIA*       CLOUDY    63  63 100 SE7       29.70S
$$

VAZ088>098-250000-
SOUTHEAST VIRGINIA

CITY           SKY/WX    TMP DP  RH WIND       PRES   REMARKS
NORFOLK        CLOUDY    64  62  93 S7        29.69F
VIRGINIA BEACH CLOUDY    68  65  90 S6        29.70F
NORFOLK NAVAL  CLOUDY    68  63  84 VRB6      29.71S
WEST POINT*    MOCLDY    64  63  94 SE5       29.67S
SALUDA*        FAIR      62  61  96 S9G17     29.67R
NEWPORT NEWS   CLOUDY    67  62  84 S12       29.68S
LANGLEY AFB    CLOUDY    63  62  99 S6        29.69S
FORT EUSTIS    MOCLDY    63 N/A N/A S10       29.67S
WILLIAMSBURG*  MOCLDY    63  63 100 S6        29.69S
HR EXEC AP*    CLOUDY    64  63  94 S7        29.73S
FRANKLIN*      CLOUDY    63 N/A N/A S7        29.70S
WAKEFIELD      CLOUDY    64  61  90 S7        29.69R
$$

VAZ020-022-025-037-045-250000-
WEST CENTRAL AND SOUTHWEST VIRGINIA

CITY           SKY/WX    TMP DP  RH WIND       PRES   REMARKS
STAUNTON*      CLOUDY    54  51  92 CALM      29.60F
WAYNESBORO*    CLOUDY    58  56  92 S12       29.58F
HOT SPRINGS VA HVY RAIN  50  50 100 S14G20    29.59F VSB<1/4
LYNCHBURG      FOG       48  48 100 S5        29.66S VSB 3/4
DANVILLE       FOG       49  47  93 CALM      29.66S VSB 1/4
SOUTH BOSTON*  CLOUDY    49  47  95 CALM      29.66F VSB 1/4
MARTINSVILLE   CLOUDY    49  49 100 CALM      29.68F FOG
ROANOKE        CLOUDY    48  47  96 SE9       29.65F FOG
BLACKSBURG     CLOUDY    54  53  94 S7        29.64S
DUBLIN*        CLOUDY    57  57 100 S10       29.61F
MARION*        CLOUDY    62  52  71 S16G23    29.59S
HILLSVILLE*    CLOUDY    52  52 100 S9G22     29.63F
RICHLANDS*     CLOUDY    61  50  66 S14G21    29.53S
WISE*          CLOUDY    59  55  88 S13       29.56R
ABINGDON*      CLOUDY    62  54  74 W13G18    29.54S
$$

MDZ021>025-VAZ099-100-250000-
SOUTHERN MARYLAND AND THE DELMARVA PENINSULA

CITY           SKY/WX    TMP DP  RH WIND       PRES   REMARKS
PATUXENT RIVER FOG       56  55  97 W3        29.65R VSB 1/4
BAY BRIDGE APT   N/A     54  54 100 S6        29.64R
LEONARDTOWN    CLOUDY    54  52  94 SW5       29.67R
DOVER          CLOUDY    63  63 100 S6        29.62F
GEORGETOWN     CLOUDY    65  62  90 S9        29.64F
EASTON         CLOUDY    59  59 100 SW6       29.68F
CAMBRIDGE      CLOUDY    59  55  88 SE5       29.63F VSB 1/2
SALISBURY      CLOUDY    67  63  87 S10       29.65F
OCEAN CITY     CLOUDY    56  55  97 SW9G18    29.67F
WALLOPS ISLAND CLOUDY    55  55 100 SW15      29.68S FOG
ACCOMACK*      CLOUDY    61  59  94 S5        29.68S
$$

NCZ012>017-030>032-250000-
NORTH CENTRAL AND EASTERN NORTH CAROLINA

CITY           SKY/WX    TMP DP  RH WIND       PRES   REMARKS
ROANOKE RAPIDS CLOUDY    63  63 100 S9        29.69S
RALEIGH        LGT RAIN  66  62  87 S12       29.69S
ELIZABETH CITY CLOUDY    71  65  81 S12G21    29.74R
AHOSKIE*       CLOUDY    66  65  97 S8        29.71F
EDENTON*       CLOUDY    66  65  97 SW10      29.75R
CURRITUCK*     CLOUDY    68  65  92 S7        29.74S
KILL DEVIL HLS CLOUDY    67  67 100 S7        29.74F
MANTEO         DRIZZLE   64  64 100 S16       29.77F
CAPE HATTERAS  CLOUDY    66  65  96 SW16G23   29.81S FOG
TARBORO*       CLOUDY    68  63  83 S13       29.73R
GOLDSBORO      CLOUDY    68  67  99 S10       29.71F
WASHINGTON     CLOUDY    68  64  88 SW10G16   29.76S
GREENVILLE     CLOUDY    68  64  88 SW10      29.77S
NEW BERN       CLOUDY    68  64  87 S8        29.79F
WILMINGTON     CLOUDY    67  64  90 S9        29.79F
$$

VAZ048-250000-
ELSEWHERE

CITY           SKY/WX    TMP DP  RH WIND       PRES   REMARKS
HARRISBURG PA  FOG       47  47 100 NW3       29.58F VSB 1/2
BALTIMORE      CLOUDY    52  51  97 SW3       29.63S FOG
ANNAPOLIS      CLOUDY    49  47  93 SE6       29.62F FOG
ANDREWS AFB    CLOUDY    52  52 100 S8        29.63R
PHILADELPHIA   CLOUDY    62  59  90 SW9       29.63F
HENDERSON NC   CLOUDY    63  62  95 S12       29.68F
GREENSBORO     FOG       50  50 100 CALM      29.65F VSB 1/4
ROCKY MOUNT    CLOUDY    67  63  87 S12       29.72R
$$

VAZ100-250000-
MARINE

STATION/POSITION TIME  TEMP    WIND        PRES    WAVE   SWELL
                       AIR SEA DIR/SP/G            HT/PER HT/PER
                 (UTC) (F)     (DEG/KT/KT) (MB)    (FT/S) (FT/S)
CAPE MAY NJ      2300   56 47  140/ 11/ 15 1003.0F
LEWES DE         2300   63 43  180/ 10/ 15 1003.0F
15NM E FENWICK I 2300   53 46              1005.4R   6/ 6
OCEAN-CITY-INLET 2300   53 46  190/ 13/ 16 1004.0F
WACHAPREAGUE VA  2300   56 49  220/  5/  7 1005.1R
THOMAS POINT MD  2300   48 42  190/  8/  8 1005.1R
GOOSES REEF MD   2300   48     VRB  4/  6  1003.1R
COVE POINT MD    2300   54     260/  4/  5 1004.2R
SOLOMONS ISLAND  2300      43                N/A
BISHOPS HEAD MD  2300   49 43  170/  9/ 11 1003.2F
PINEY POINT MD   2300          350/  4/  4   N/A
POTOMAC MD       2300   49     190/  6/  6 1002.8S
CAMBRIDGE MD     2300   54 40  350/  3/  5 1003.4F
LEWISETTA VA     2300   52 43  360/  4/  5 1003.8R
RAPPAHANNOCK LGT 2300          170/ 16/ 16 1005.2F
STINGRAY PT      2300   51     180/ 10/ 12 1005.3F
YORK RVR RNG VA  2300   56     180/ 14/ 14 1004.5S
YORKTOWN VA      2300   62 45  170/  9/ 11 1004.4F
JAMESTOWN VA     2300   55     150/  8/  8   N/A
DOMINION TERM VA 2300   56     170/  7/  8 1005.3F
KIPTOPEKE VA     2300      51  170/ 10/ 11   N/A
CHES BAY BRIDGE  2300   63 46  140/  8/  9 1005.4F
CAPE HENRY VA    2300   65     150/  5/  6 1004.8F
CHESAPEAKE LGHT  2200   58     180/ 30/ 33 1005.4F
WILLOUBY STN VA  2300   64     180/ 12/ 13 1005.7F
S CRANEY ISL VA  2300          170/  8/  9 1005.4F
CAPE HENRY BUOY  2300      48                N/A     5/ 6
1ST LANDING BUOY 2300   59     150/  4/  6 1005.8F
CAPE CHARLES BUO 2300      47                N/A     4/ 5   2/ 8
64NM E OF VA BCH 2300   60 53  180/ 17/ 27 1007.7F   7/ 8   2/14
DUCK PIER NC     2300   63 50  190/ 15/ 20 1006.3F
44100 DUCK FRF   2300      51                N/A     5/ 7   2/11
44056 DUCK FRF   2300      49                N/A     4/ 8   2/11
OREGON INLET NC  2300   62 51  210/ 20/ 25 1008.7S
HATTERAS NC      2300   67 55  190/  7/ 17 1009.5S
DIAMOND SHLS NC  2300   76                 1009.3S   8/ 7
CAPE LOOKOUT NC  2200   65     190/ 14/ 16 1009.3R
$$


USA.gov is the U.S. government's official web portal to all federal, state and local government web resources and services.